Location: Laan Hart van Zuid
(52.2563°N, 6.7904°E)
Time: 17:45:33
(UTC+02:00)

BlueWalker 3 - Visible Passes

Search period start: 22 April 2024 00:00
Search period end: 02 May 2024 00:00
Orbit: 485 x 495 km, 53.2° (Epoch: 21 April)

Date Brightness Start Highest point End Pass type
(mag) Time Alt. Az. Time Alt. Az. Time Alt. Az.
22 Apr 3.3 00:37:44 10° WNW 00:39:55 32° WNW 00:39:55 32° WNW visible
22 Apr 1.9 22:34:42 10° W 22:38:31 81° N 22:41:46 14° ENE visible
23 Apr 2.3 00:13:02 10° WNW 00:16:11 58° WNW 00:16:11 58° WNW visible
23 Apr 1.9 22:10:00 10° W 22:13:49 82° NNW 22:17:40 10° E visible
23 Apr 1.8 23:48:20 10° WNW 23:52:11 85° NNE 23:52:22 80° ENE visible
24 Apr 4.7 01:26:40 10° W 01:26:46 11° W 01:26:46 11° W visible
24 Apr 2.0 21:45:15 10° W 21:49:05 83° N 21:52:55 10° ENE visible
24 Apr 1.8 23:23:36 10° WNW 23:27:27 84° NNE 23:28:28 47° E visible
25 Apr 4.2 01:01:55 10° W 01:02:52 16° W 01:02:52 16° W visible
25 Apr 2.0 21:20:30 10° W 21:24:19 84° N 21:28:10 10° ENE visible
25 Apr 1.9 22:58:51 10° WNW 23:02:41 83° N 23:04:31 29° E visible
26 Apr 3.6 00:37:09 10° W 00:38:55 24° W 00:38:55 24° W visible
26 Apr 1.9 22:34:04 10° W 22:37:54 82° N 22:40:31 19° E visible
27 Apr 3.0 00:12:22 10° W 00:14:56 33° WSW 00:14:56 33° WSW visible
27 Apr 1.9 22:09:16 10° W 22:13:06 81° N 22:16:31 13° E visible
27 Apr 2.5 23:47:34 10° WNW 23:50:55 43° SW 23:50:55 43° SW visible
28 Apr 2.0 21:44:27 10° W 21:48:16 81° N 21:52:07 10° E visible
28 Apr 2.3 23:22:44 10° WNW 23:26:24 45° SSW 23:26:53 43° S visible
29 Apr 2.3 22:57:53 10° WNW 23:01:34 47° SSW 23:02:51 33° SSE visible
30 Apr 2.3 22:33:01 10° WNW 22:36:43 48° SSW 22:38:48 23° SE visible
01 May 4.4 00:12:27 10° WSW 00:13:12 12° WSW 00:13:12 12° WSW visible
01 May 2.3 22:08:07 10° WNW 22:11:50 50° SSW 22:14:46 15° SE visible
01 May 4.2 23:47:26 10° WSW 23:49:10 13° SW 23:49:10 13° SW visible
